Location: Blessed Sacrament School
(39.7823°N, 89.6651°W)
Time: 03:45:21
(UTC+00:00)

Daily predictions for brighter satellites

Satellite Brightness Start Highest point End
(mag) Time Altitude Azimuth Time Altitude Azimuth Time Altitude Azimuth
Cosmos 1937 Rocket 3.5 00:17:55 10° SSW 00:23:10 79° ESE 00:28:24 10° NNE
Cosmos 1544 3.8 00:20:55 10° SSW 00:24:31 61° W 00:28:08 10° N
CZ-4 R/B 4.5 00:20:33 10° SSE 00:24:39 88° E 00:28:48 10° NNW
Cosmos 2112 Rocket 4.1 00:23:04 10° NNW 00:28:18 87° WSW 00:33:33 10° SSE
CZ-2C R/B 1.8 00:25:53 10° WSW 00:29:21 37° S 00:32:36 10° ESE
Cosmos 1943 3.2 00:23:54 10° NNW 00:29:32 67° ENE 00:35:09 10° SSE
Cosmos 1939 Rocket 3.4 00:26:18 10° S 00:30:24 67° W 00:34:33 10° NNW
Cosmos 1680 Rocket 3.9 00:26:11 10° NNW 00:31:23 69° WSW 00:36:36 10° S
CSL-04 Debris 4.3 00:31:51 10° SSE 00:37:04 54° ENE 00:42:19 10° N
Iridium 4 Rocket 3.6 00:33:20 10° S 00:38:13 84° W 00:43:38 10° N
Cosmos 1975 Rocket 3.0 00:35:08 10° N 00:39:24 59° E 00:43:39 10° SSE
Helios 1A Rocket 4.1 00:37:36 10° S 00:41:33 48° W 00:45:34 10° NNW
CSL-04 Rocket 3.8 00:38:33 10° SSE 00:43:50 59° ENE 00:49:14 10° N
COSMO-SKYMED 1 4.3 00:40:44 10° N 00:44:44 37° WNW 00:48:43 10° SW
Cosmos 1603 4.0 00:45:48 10° NNW 00:51:25 69° WSW 00:56:58 10° SSE
Abrixas rocket 4.4 00:53:21 10° NW 00:55:02 14° N 00:56:44 10° NE
NOSS 2-2 (E) 4.4 00:52:02 10° SW 00:55:21 42° NW 00:58:59 10° NNE
Meteor 1-21 4.3 00:52:16 10° NNW 00:57:53 81° W 01:03:27 10° S
HJ-1C 3.2 00:54:42 10° SSE 00:57:58 65° ENE 01:01:13 10° N
H-2A R/B 1.9 00:53:50 10° SSE 00:58:43 66° ENE 01:03:44 10° N
SJ 16-02 4.4 00:57:40 10° W 01:00:14 15° WNW 01:02:50 10° NNW
Cosmos 1072 Rocket 4.5 00:54:15 10° S 01:00:23 68° E 01:06:41 10° NNE
Sich 1 Rocket 3.6 00:56:40 10° S 01:01:09 88° W 01:05:43 10° N
ATLAS 2AS CENTAUR R/B 3.9 00:55:19 10° SSE 01:01:19 24° ESE 01:07:22 10° ENE
BREEZE-M TANK 3.8 00:46:34 10° WSW 01:01:38 88° NNW 01:05:14 14° ENE
Nadezhda 4 Rocket 4.5 00:56:50 10° N 01:02:28 37° ENE 01:07:55 11° SE
Meteor 1-12 Rocket 4.3 00:58:14 10° S 01:04:06 68° E 01:09:53 10° NNE
NOSS 2-2 (D) 4.2 01:00:58 10° SW 01:04:19 44° NW 01:07:55 10° NNE
Cosmos 2034 Rocket 4.2 01:01:04 10° SSE 01:07:09 50° E 01:13:14 10° NNE
CENTAUR R/B 3.9 01:01:51 10° NNW 01:09:06 35° NE 01:14:15 20° E
CZ-4 R/B 3.2 01:09:22 10° SSW 01:13:12 34° W 01:17:03 10° NNW
Okean 1 Rocket 4.1 01:16:19 26° E 01:16:19 26° E 01:19:55 10° NNE
Okean 2 Rocket 3.0 01:13:04 10° S 01:17:34 88° E 01:22:04 10° N
Cosmos 1707 2.6 01:14:51 10° N 01:18:42 88° WSW 01:22:31 10° S
Ariane Rocket 3.3 01:16:43 21° SE 01:19:46 46° ENE 01:24:36 10° N
Cosmos 1300 Rocket 3.5 01:15:51 10° S 01:20:14 88° W 01:24:42 10° N
OBJECT-B 3.3 01:23:19 11° NNE 01:23:19 11° NNE 01:23:39 10° NNE
USA 238 DEB 4.1 01:18:13 10° NNW 01:25:16 52° NE 01:29:18 27° ESE
USA 238 4.1 01:18:20 10° NNW 01:25:23 51° NE 01:29:22 27° ESE
DELTA 2 R/B (1) 4.5 01:20:51 10° W 01:26:00 40° SSW 01:29:07 21° SSE
ARGOS 3.1 01:22:41 10° SSE 01:28:03 88° WSW 01:33:27 10° NNW
In-Cosmos 22 4.0 01:23:34 10° N 01:28:54 80° E 01:34:16 10° SSE
SJ-6B 2.9 01:33:14 47° ENE 01:33:14 47° ENE 01:36:51 10° N
SL-08 RB Rocket 3.6 01:30:56 20° SSE 01:34:04 78° ENE 01:38:37 10° N
CZ-2C R/B 2.6 01:29:39 10° NNE 01:35:12 67° ESE 01:40:46 10° S
CZ-2C R/B 4.4 01:31:14 10° SSW 01:36:08 42° W 01:41:21 10° NNW
Cosmos 2298 Rocket 4.3 01:32:55 10° SSW 01:38:14 70° WNW 01:43:34 10° NNE
Cosmos 1634 Rocket 4.4 01:37:16 34° ESE 01:38:38 38° E 01:44:14 10° NNE
MOS 1 Rocket 4.3 01:38:27 10° N 01:42:36 42° WNW 01:46:38 10° SW
USA 186 1.8 01:43:19 75° WNW 01:43:19 75° WNW 01:46:24 10° NNW
Cosmos 1536 Rocket 3.5 01:39:07 10° N 01:43:36 87° E 01:45:33 33° S
SPOT 3 Rocket 4.2 01:44:55 35° ENE 01:44:55 35° ENE 01:49:32 10° N
Cosmos 1025 Rocket 3.5 01:44:08 10° NNW 01:48:28 60° W 01:51:49 16° S
Cosmos 2285 Rocket 3.9 01:42:18 10° S 01:48:32 73° ESE 01:54:52 10° NNE
Cosmos 1844 3.7 01:46:33 10° SSW 01:52:16 86° WNW 01:57:57 10° NNE
NOSS 3-2 (A) 4.0 01:44:36 10° NNW 01:52:20 79° NE 01:56:29 34° SE
Meteor 2-13 Rocket 4.4 01:47:31 10° N 01:53:38 62° E 01:55:29 43° SE
ISS -1.3 01:52:09 10° WNW 01:54:36 18° NNW 01:55:46 16° N
Cosmos 1844 Rocket 3.1 01:51:23 10° SW 01:56:52 63° WNW 02:02:26 10° NNE
Cosmos 1092 Rocket 3.8 01:57:18 10° N 02:03:27 71° E 02:05:04 50° SSE
Cosmos 2195 Rocket 4.4 01:58:10 10° N 02:04:23 64° E 02:05:23 55° SE
Cosmos 2026 Rocket 4.0 02:01:48 10° N 02:08:05 58° E 02:08:37 57° E
CZ-2C R/B 3.1 02:05:32 10° WSW 02:07:04 20° SW 02:07:04 20° SW
MetOp-A 4.1 02:07:40 46° S 02:09:20 79° WSW 02:14:43 10° NNW
USA 234 3.1 02:04:41 19° NE 02:09:35 77° SE 02:16:08 10° SW
Cosmos 1125 Rocket 4.1 02:06:18 10° SSW 02:11:30 57° WNW 02:16:46 10° N
MOS 1 4.5 02:10:42 34° S 02:13:14 69° WSW 02:18:56 10° NNW
Milstar 3 Cent rocket 3.7 02:10:47 10° SW 02:14:14 21° SSW 02:14:14 21° SSW
Cosmos 1428 Rocket 4.4 02:12:45 10° N 02:19:00 67° E 02:19:00 67° E
Cosmos 1833 Rocket 4.2 02:18:35 10° N 02:21:52 24° NNE 02:21:52 24° NNE
NOSS 3-2 (C) 4.0 02:20:17 10° NNW 02:28:03 84° ENE 02:29:49 60° SE
NOSS 3-4 (A) 3.2 02:23:03 10° SSW 02:28:55 87° NW 02:35:09 10° NNE
NOSS 3-4 (C) 3.2 02:23:09 10° SSW 02:29:01 88° WNW 02:35:15 10° NNE
Cosmos 1674 4.5 02:26:12 10° NNW 02:28:51 31° WNW 02:28:51 31° WNW
Resurs 01 Rocket 3.3 02:36:49 29° N 02:36:49 29° N 02:38:59 10° N
ATLAS 2AS CENTAUR R/B 3.1 02:43:42 10° SW 02:51:37 75° NW 02:59:34 10° NNE
BREEZE-M DEB (TANK) 4.3 02:49:01 10° WNW 02:53:31 58° SSW 02:54:11 56° SSW
CENTAUR R/B 3.2 02:52:13 10° NW 03:00:30 71° WSW 03:01:27 66° SSW
Cosmos 2082 Rocket 4.1 03:03:13 10° N 03:05:22 21° N 03:05:22 21° N
ATLAS 3B R/B 3.4 03:02:08 10° NNW 03:07:18 45° N 03:07:18 45° N
USA 234 4.4 03:52:10 36° NNW 03:52:13 36° NNW 03:58:04 10° W
Lacrosse 5 4.4 08:06:13 17° NE 08:06:13 17° NE 08:07:26 10° NE
USA 267 3.8 08:17:31 10° NE 08:22:28 55° NE 08:22:28 55° NE
Cosmos 1697 Rocket 4.0 08:48:35 32° N 08:48:35 32° N 08:51:43 10° NNE
Cosmos 1980 Rocket 2.8 08:52:46 52° NNE 08:52:46 52° NNE 08:57:00 10° NNE
BREEZE-M DEB (TANK) 4.3 08:55:56 53° S 08:56:48 56° SSE 09:01:19 10° ENE
USA 234 4.2 08:51:13 10° E 08:57:18 44° NNE 09:03:24 10° NW
Cosmos 2322 Rocket 4.3 08:55:32 14° SE 08:58:40 21° E 09:02:49 10° NE
Cosmos 2263 Rocket 3.8 08:55:45 10° N 09:00:47 32° ENE 09:05:49 10° ESE
SL-4 R/B 3.9 09:08:18 29° ESE 09:08:18 29° ESE 09:11:34 10° ENE
SL-16 R/B 3.7 09:05:31 24° SE 09:07:45 32° ESE 09:12:42 10° NE
Cosmos 2228 Rocket 4.2 09:09:42 41° NE 09:09:42 41° NE 09:12:59 10° NNE
Cosmos 1934 Rocket 3.9 09:05:24 10° N 09:11:29 79° E 09:12:49 56° SSE
ADEOS II 3.8 09:06:56 10° N 09:09:06 22° NNW 09:09:06 22° NNW
ARIANE 5 R/B 3.3 09:09:17 10° N 09:12:41 41° N 09:12:41 41° N
CZ-2C R/B 4.1 09:15:50 10° NNE 09:20:26 32° E 09:24:59 10° SSE
ASTEX 1 3.9 09:15:27 10° N 09:19:17 53° N 09:19:17 53° N
IDEFIX/ARIANE 42P 2.7 09:15:25 10° N 09:20:03 67° NNW 09:20:03 67° NNW
CZ-2C R/B 4.2 09:19:29 10° NNE 09:21:45 34° NNE 09:21:45 34° NNE
SJ 16-02 2.4 09:24:57 10° N 09:29:10 43° ENE 09:33:21 10° SE
Meteor 1-14 Rocket 4.0 09:26:12 10° NNW 09:31:48 76° W 09:32:16 71° SW
Cosmos 44 4.1 09:33:21 36° NNW 09:33:21 36° NNW 09:36:38 10° NNE
Meteor 2-6 Rocket 4.2 09:32:38 43° S 09:34:34 81° E 09:40:24 10° N
DEBRIS 4.0 09:34:58 32° NE 09:34:58 32° NE 09:38:20 10° E
H-2A R/B 2.7 09:31:20 10° SSE 09:35:35 56° ENE 09:39:57 10° N
Cosmos 1238 Rocket 3.8 09:30:21 10° N 09:36:53 72° W 09:39:04 41° SSW
Cosmos 1605 Rocket 4.0 09:32:21 10° N 09:38:47 83° E 09:45:11 10° S
Cosmos 1535 Rocket 4.4 09:33:53 10° NNW 09:40:13 66° W 09:43:11 33° SSW
BREEZE-M DEB (TANK) 4.3 09:39:27 44° WSW 09:42:16 85° NNW 10:08:46 10° ENE
Lacrosse 5 3.5 09:45:25 20° NW 09:45:57 21° NNW 09:49:46 10° NNE
Landsat 5 3.7 09:41:36 10° SSE 09:46:07 77° ENE 09:50:36 10° N
PAYLOAD A 4.1 09:43:05 10° NNE 09:47:45 66° ESE 09:50:29 25° S
ERS-2 3.6 09:45:13 10° SE 09:48:38 38° ENE 09:52:03 10° N
Helios 1B 4.4 09:48:16 70° SSW 09:48:39 78° WSW 09:53:00 10° NNW
X-37B 2.0 09:51:10 34° NNE 09:51:10 34° NNE 09:53:54 10° ENE
Cosmos 468 Rocket 4.0 09:50:05 35° SSW 09:52:25 83° ESE 09:57:42 10° NNE
ALOS 4.3 09:56:13 10° NE 10:00:14 28° E 10:04:14 10° SSE
CSL-04 DEB 4.4 10:00:21 10° S 10:04:36 69° WSW 10:08:58 10° NNW
USA 267 4.2 10:00:56 10° NE 10:06:37 33° NNW 10:09:48 22° WNW
Cosmos 1536 3.9 10:03:03 10° N 10:07:00 47° E 10:10:55 10° SSE
NOSS 3-3 (A) 4.3 10:06:31 34° W 10:08:26 44° NW 10:14:35 10° NNE
NOSS 3-3 (C) 4.3 10:06:40 34° W 10:08:33 44° NW 10:14:40 10° NNE
Cosmos 1727 Rocket 3.9 10:04:39 10° S 10:11:00 78° W 10:17:22 10° N
Meteor 1-11 Rocket 3.7 10:08:40 10° N 10:14:28 87° E 10:20:05 10° S
Cosmos 2100 Rocket 4.5 10:09:06 10° N 10:15:27 64° E 10:21:44 10° SSE
CZ-4C R/B 4.4 10:20:58 24° NW 10:20:58 24° NW 10:22:45 10° NNW
Cosmos 921 Rocket 4.1 10:20:07 25° WNW 10:20:07 25° WNW 10:23:26 10° N
deb Chang Zheng 4 4.0 10:16:38 10° NNE 10:20:53 61° ESE 10:25:05 10° S
SL-8 R/B 3.6 10:17:55 22° WNW 10:21:00 87° SSW 10:25:46 10° SE
Cosmos 1812 3.6 10:21:49 29° WNW 10:21:49 29° WNW 10:24:54 10° NNW
Meteor 1-27 Rocket 3.8 10:16:46 10° SSW 10:22:42 80° W 10:28:39 10° N
Cosmos 2360 Rocket 2.7 10:19:39 10° S 10:25:13 62° ESE 10:30:49 10° NNE
Cosmos 1898 Rocket 3.4 10:20:34 10° NNW 10:25:50 80° WSW 10:31:07 10° SSE
ATLAS 2AS CENTAUR R/B 3.8 10:19:01 10° NNW 10:26:12 47° NE 10:32:47 10° ESE
ADEOS Rocket 3.1 10:21:09 10° SSE 10:28:07 86° WSW 10:34:22 10° NNW
Cosmos 1666 2.6 10:25:36 10° NNW 10:29:22 60° W 10:33:04 10° S
Cosmos 1707 Rocket 3.6 10:26:35 14° SSW 10:30:08 54° W 10:34:24 10° N
Cosmos 1459 Rocket 4.1 10:24:26 10° N 10:30:32 77° E 10:36:34 10° S
Cosmos 1980 Rocket 3.9 10:34:33 14° WNW 10:36:03 16° NW 10:39:21 10° NNW
Cosmos 858 Rocket 4.5 10:31:06 10° NNW 10:36:18 90° WSW 10:41:30 10° SSE
SAR-Lupe-4 4.0 10:32:54 10° SSE 10:36:27 66° ENE 10:40:02 10° N
FENGYUN 3A 3.9 10:31:51 10° NNE 10:37:15 72° ESE 10:42:38 10° S
Cosmos 2208 Rocket 4.1 10:33:19 10° SSW 10:38:34 78° ESE 10:43:46 10° NNE
USA 234 3.3 10:33:43 10° SSE 10:40:08 60° SW 10:46:35 10° NW
Cosmos 2322 Rocket 2.4 10:37:25 13° SW 10:42:15 52° WNW 10:47:50 10° NNE
USA 32 4.2 10:39:17 10° NNW 10:44:21 51° W 10:49:24 10° SSW
Cosmos 2263 Rocket 2.7 10:39:35 10° NW 10:44:41 36° WSW 10:49:48 10° S
FALCON 9 DEB 3.9 10:43:18 22° W 10:44:59 36° NNW 10:48:12 10° NE
SL-4 R/B 2.7 10:43:55 19° W 10:47:00 51° NNW 10:51:41 10° NE
SAR-Lupe-1 4.0 10:45:03 10° SSE 10:48:36 88° W 10:52:11 10° NNW
Cosmos 1733 Rocket 2.9 10:46:03 10° NNW 10:50:23 71° W 10:54:41 10° S
Cosmos 1844 Rocket 3.6 10:45:16 10° NNW 10:50:47 52° ENE 10:56:17 10° SE
Meteor 1-4 Rocket 4.1 10:50:45 16° WNW 10:51:02 16° WNW 10:53:16 10° NNW
Cosmos 1937 Rocket 3.4 10:46:09 10° NNW 10:51:14 64° WSW 10:56:18 10° S
SL-16 R/B 2.9 10:47:26 14° WSW 10:51:45 36° WNW 10:56:57 10° N
Cosmos 2237 4.2 10:47:41 10° SSW 10:53:23 71° WNW 10:59:06 10° NNE
ADEOS 3.6 10:50:28 10° N 10:55:36 59° WNW 11:00:43 10° SSW
Cosmos 1814 Rocket 3.9 10:50:53 10° SSW 10:56:03 74° WNW 11:01:20 10° NNE
Cosmos 44 Rocket 3.3 10:52:05 10° SW 10:56:45 64° WNW 11:01:34 10° NNE
Cosmos 841 Rocket 3.6 10:52:09 10° SSW 10:57:16 57° WNW 11:02:27 10° N
ATLAS CENTAUR R/B 4.4 10:51:45 10° NW 10:58:25 26° NNE 11:01:44 10° ENE
CZ-2C R/B 3.4 10:54:06 10° N 10:58:32 30° WNW 11:03:00 10° SW
Gbstr 26 Del rocket 4.3 10:54:56 10° NW 11:02:50 71° SW 11:09:37 10° SE
Cosmos 2173 Rocket 4.1 10:57:23 10° NNW 11:03:35 58° W 11:09:47 10° S
SJ-12 4.2 11:00:10 10° NNE 11:04:19 75° ESE 11:08:26 10° S
Cosmos 1862 Rocket 3.8 11:00:06 10° SSW 11:04:21 48° W 11:08:35 10° N
CZ-4B R/B 2.0 11:04:26 10° SSW 11:07:14 30° W 11:10:07 10° NNW
SJ 16-02 2.9 11:04:47 10° WNW 11:07:20 15° W 11:09:52 10° SW
Cosmos 1743 2.6 11:05:02 10° N 11:08:49 78° W 11:12:37 10° S
H-2A R/B 3.8 11:10:01 10° WSW 11:11:54 13° W 11:13:49 10° WNW
Cosmos 2219 Rocket 3.0 11:10:04 10° S 11:15:34 57° ESE 11:21:09 10° NNE
Cosmos 1689 Rocket 2.0 11:12:46 10° S 11:15:41 65° WSW 11:18:39 10° NNW
COSMOS 2428 3.6 11:16:44 10° S 11:22:17 56° ESE 11:27:53 10° NNE
